Location: ??????
(38.5153°N, 23.0340°E)
Time: 14:35:31
(UTC+00:00)

Cosmos 1538 Rocket - Pass Details

Date: 13 December 2025
Orbit: 747 x 788 km, 74.0° (Epoch: 17 January)

Event Time Altitude Azimuth Distance (km) Brightness Sun altitude
Rises 16:42:24 0° 340° (NNW) 3,257 7.3 -18.0°
Reaches altitude 10° 16:44:47 10° 339° (NNW) 2,332 6.6 -18.4°
Maximum altitude 16:50:05 77° 254° (WSW) 804 4.1 -19.4°
Drops below altitude 10° 16:55:24 10° 169° (SSE) 2,337 6.5 -20.4°
Sets 16:57:47 0° 167° (SSE) 3,264 7.3 -20.9°
